Powrót do katalogu

STARLINK-34841

AktywnyŁącznośćVLEO
NORAD 65208·PAYLOAD·🇺🇸 United States

Wystrzelony Aug 14, 2025 z Cape Canaveral Space Force Station

Loading…

Następne Przeloty (najbliższe 24 godziny)

TLE

ŚwieżeSource: CelesTrak SupGP

Epoka: Sep 15, 2026, 03:54 UTC

1 65208C 25176L   26258.16298611  .00064485  00000+0  19060-2 0  2581
2 65208  53.1592 348.4831 0001409 100.7769  69.8130 15.34345385    12

Śledź STARLINK-34841 w czasie rzeczywistym z AllMySat

Download on the App Store